STARLINK-31770 (59601 NORAD) Tracking and Keplerian Element Data

This shows tracking and keplerian element data for the satellite.

Feedback or suggestion? Click here.




ElementValue
Catalog59601
NameSTARLINK-31770
Epoch Orbit739
Epoch Day159.50308792
Epoch Year2024
RAAN91.4928
Inclination43.0018
Eccentricity0.0001116
Argument of Perigee318.1178
Mean Anonmoly41.9593
Mean Motion15.40703717
Decay Rate3.103E-05
L11 59601U 24080A 24159.50308792 .00003103 00000+0 81497-4 0 9999
L22 59601 43.0018 91.4928 0001116 318.1178 41.9593 15.40703717 7395



Live tracking and technical data element details for STARLINK-31770 (NORAD 59601). STARLINK-31770 can be tracked NOW for your location showing map with azimuth and elevation plus other details from your city location.







IsCatalogInMostPopularTable: catalog: 59601, numindb: 11
Update: records affected: 1



GetName: 59601 STARLINK-31770

Hit Count: updated at: Fri, 14 Jun 2024 19:13:15 GMT